Location: Unspecified
(0.0000°N, 0.0000°E)
Time: 18:13:24
(UTC+00:00)

Transit 2A Rocket - All Passes

Search period start: 23 March 2017 00:00
Search period end: 02 April 2017 00:00
Orbit: 595 x 909 km, 66.7° (Epoch: 21 March)

Date Brightness Start Highest point End Pass type
(mag) Time Alt. Az. Time Alt. Az. Time Alt. Az.
23 Mar - 04:21:33 10° N 04:26:03 35° ENE 04:30:57 10° SE visible
23 Mar - 06:05:50 10° W 06:08:31 14° WSW 06:11:20 10° SW daylight
23 Mar - 16:52:05 10° SSW 16:57:29 78° WNW 17:02:22 10° NNE daylight
24 Mar - 03:40:40 10° NNE 03:43:49 17° ENE 03:47:08 10° ESE visible
24 Mar - 05:21:42 10° NW 05:26:04 30° WSW 05:30:49 10° S visible
24 Mar - 16:09:57 10° S 16:15:09 48° ESE 16:19:53 10° NE daylight
25 Mar - 04:38:45 10° NNW 04:43:41 63° WSW 04:49:08 10° S visible
25 Mar - 15:28:34 10° SSE 15:32:45 23° ESE 15:36:38 10° ENE daylight
25 Mar - 17:11:10 10° WSW 17:15:03 21° WNW 17:18:43 10° NNW daylight
26 Mar - 03:56:29 10° N 04:01:23 60° ENE 04:06:47 10° SSE visible
26 Mar - 14:49:26 10° ESE 14:50:16 10° ESE 14:51:06 10° ESE daylight
26 Mar - 16:27:45 10° SW 16:32:50 45° WNW 16:37:27 10° N daylight
27 Mar - 03:14:54 10° NNE 03:19:08 28° ENE 03:23:43 10° SE visible
27 Mar - 04:58:03 10° WNW 05:01:33 18° WSW 05:05:15 10° SSW visible
27 Mar - 15:45:11 10° SSW 15:50:33 82° ESE 15:55:25 10° NNE daylight
28 Mar - 02:34:36 10° NE 02:36:55 13° ENE 02:39:18 10° E visible
28 Mar - 04:14:26 10° NW 04:19:06 38° WSW 04:24:13 10° S visible
28 Mar - 15:03:16 10° S 15:08:12 37° ESE 15:12:42 10° NE daylight
28 Mar - 16:48:25 10° W 16:50:22 12° WNW 16:52:16 10° NW daylight
29 Mar - 03:31:43 10° NNW 03:36:45 81° WSW 03:42:18 10° SSE visible
29 Mar - 14:22:15 10° SSE 14:25:46 18° ESE 14:29:05 10° ENE daylight
29 Mar - 16:03:48 10° SW 16:08:08 27° WNW 16:12:11 10° NNW daylight
30 Mar - 02:49:40 10° N 02:54:28 47° ENE 02:59:44 10° SE night (unlit)
30 Mar - 04:35:42 10° W 04:37:02 11° WSW 04:38:24 10° SW visible
30 Mar - 15:20:42 10° SSW 15:25:54 59° WNW 15:30:38 10° N daylight
31 Mar - 02:08:21 10° NNE 02:12:14 22° ENE 02:16:23 10° ESE night (unlit)
31 Mar - 03:50:30 10° WNW 03:54:34 23° WSW 03:58:55 10° SSW night (unlit)
31 Mar - 14:38:20 10° S 14:43:36 63° ESE 14:48:22 10° NNE daylight
01 Apr - 03:07:15 10° NW 03:12:09 48° WSW 03:17:32 10° S night (unlit)
01 Apr - 13:56:40 10° S 14:01:13 29° ESE 14:05:26 10° NE daylight
01 Apr - 15:40:27 10° WSW 15:43:27 16° WNW 15:46:19 10° NW daylight
